Regional Weather Roundup
Issued by NWS

Home | Current Version | Previous Version | Graphics & Text | Print | Product List | Glossary On
Versions: 1 2 3 4 5 6 7 8 9 10 11 12 13 14 15 16 17 18 19 20 21 22 23 24 25 26 27 28 29 30 31 32 33 34 35 36 37 38 39 40 41 42 43 44 45 46 47 48 49 50
000
ASUS43 KLSX 220657
RWRMO

WEATHER SUMMARY FOR MISSOURI
NATIONAL WEATHER SERVICE SPRINGFIELD MO
100 AM CST SUN JAN 22 2017

NOTE: "FAIR" INDICATES FEW OR NO CLOUDS BELOW 12,000 FEET WITH NO
       SIGNIFICANT WEATHER AND/OR OBSTRUCTIONS TO VISIBILITY.
       CURRENT SKY AND/OR WEATHER CONDITIONS ARE NOT AVAILABLE FOR
       CHILLICOTHE AND FARMINGTON.

MOZ001>031-035>038-043-044-053-054-220800-
...NORTHERN AND WESTERN MISSOURI...

CITY           SKY/WX    TMP DP  RH WIND       PRES   REMARKS
KANSAS CTY INT CLOUDY    46  41  82 E5        29.53R
LEE`S SUMMIT   LGT RAIN  46  45  96 E9        29.52S
ST JOSEPH      CLOUDY    42  41  96 N3        29.55R
CHILLICOTHE      N/A     42  41  96 CALM      29.57S

$$
MOZ066>068-077>081-088>096-101>105-220800-
...SOUTHWEST MISSOURI...

CITY           SKY/WX    TMP DP  RH WIND       PRES   REMARKS
SPRINGFIELD    CLOUDY    51  48  89 N5        29.42F
JOPLIN         LGT RAIN  50  49  96 NW9       29.44S

$$
MOZ032>034-039>042-045>050-055>058-069>072-220800-
...CENTRAL MISSOURI...

CITY           SKY/WX    TMP DP  RH WIND       PRES   REMARKS
COLUMBIA       NOT AVBL
JEFFERSON CITY LGT RAIN  51  46  83 N7        29.52F
ROLLA          MOCLDY    50  49  96 NE6       29.49F
SEDALIA        CLOUDY    48  45  89 N6        29.53F
WHITEMAN AFB   DRIZZLE   46  46 100 E9        29.51S
WARRENSBURG    CLOUDY    45  45 100 N8        29.52S

$$
MOZ051-052-059>065-220800-
...EAST CENTRAL MISSOURI...

CITY           SKY/WX    TMP DP  RH WIND       PRES   REMARKS
ST LOUIS INTL  PTCLDY    53  41  63 NE8       29.50F

$$
MOZ072>076-082>087-097>100-106>115-220800-
...SOUTH CENTRAL AND SOUTHEAST MISSOURI...

CITY           SKY/WX    TMP DP  RH WIND       PRES   REMARKS
CAPE GIRARDEAU PTCLDY    49  48  97 CALM      29.45F FOG
POPLAR BLUFF   CLOUDY    54  53  97 NE8       29.43F
WEST PLAINS    CLOUDY    55  54  96 NE5       29.43F

$$



USA.gov is the U.S. government's official web portal to all federal, state and local government web resources and services.